EFA291 YSCB-YSSY

Flight info

Callsign EFA291
Flight time 0h 25m
Altitude 13000
Route CB W423 CULIN Y59 RIVET
Aircraft B734/M-SDE2E3FHIRW/S

Departure

Time 2026-05-07 09:01
Airport Canberra Airport (YSCB)

Arrival

Time 2026-05-07 09:26
Airport Sydney Kingsford Smith International Airport (YSSY)
Time Latitude Longitude Altitude Speed Heading
2026-05-07 08:52 -35.30796 149.19146 1871 ft 0 kts 270°
2026-05-07 08:56 -35.30799 149.19161 1871 ft 2 kts 288°
2026-05-07 08:56 -35.30802 149.19179 1872 ft 2 kts 276°
2026-05-07 08:56 -35.30804 149.19198 1872 ft 2 kts 279°
2026-05-07 08:57 -35.30806 149.19217 1873 ft 2 kts 278°
2026-05-07 08:57 -35.30808 149.19227 1873 ft 1 kts 261°
2026-05-07 08:57 -35.30800 149.19238 1873 ft 0 kts 186°
2026-05-07 08:57 -35.30794 149.19238 1873 ft 1 kts 178°
2026-05-07 08:58 -35.30793 149.19238 1873 ft 0 kts 179°
2026-05-07 08:58 -35.30794 149.19238 1873 ft 1 kts 179°
2026-05-07 08:59 -35.30815 149.19238 1873 ft 4 kts 179°
2026-05-07 08:59 -35.30858 149.19239 1873 ft 7 kts 179°
2026-05-07 08:59 -35.30926 149.19242 1873 ft 10 kts 161°
2026-05-07 08:59 -35.30966 149.19318 1875 ft 11 kts 96°
2026-05-07 09:00 -35.30957 149.19421 1877 ft 12 kts 60°
2026-05-07 09:00 -35.30753 149.19439 1877 ft 64 kts 360°
2026-05-07 09:00 -35.29914 149.19442 1878 ft 146 kts 357°
2026-05-07 09:00 -35.28721 149.19449 2388 ft 166 kts 352°
2026-05-07 09:01 -35.27529 149.19304 3396 ft 154 kts
2026-05-07 09:01 -35.26385 149.19925 3616 ft 196 kts 25°
2026-05-07 09:01 -35.24885 149.20696 4076 ft 231 kts 15°
2026-05-07 09:01 -35.23202 149.21346 4325 ft 274 kts 14°
2026-05-07 09:02 -35.21048 149.22132 5265 ft 298 kts 14°
2026-05-07 09:02 -35.19036 149.22861 6755 ft 297 kts 14°
2026-05-07 09:02 -35.16907 149.23627 8055 ft 303 kts 14°
2026-05-07 09:02 -35.14581 149.24462 8741 ft 333 kts 14°
2026-05-07 09:03 -35.12178 149.25329 9985 ft 341 kts 14°
2026-05-07 09:03 -35.09783 149.26190 11192 ft 347 kts 14°
2026-05-07 09:03 -35.07306 149.27081 12363 ft 355 kts 14°
2026-05-07 09:03 -35.04728 149.28009 13156 ft 370 kts 14°
2026-05-07 09:04 -35.01868 149.29032 13213 ft 401 kts 14°
2026-05-07 09:04 -34.99068 149.30039 13067 ft 384 kts 14°
2026-05-07 09:04 -34.96750 149.30871 13163 ft 367 kts 14°
2026-05-07 09:04 -34.94081 149.31826 13150 ft 362 kts 14°
2026-05-07 09:05 -34.91387 149.32790 13146 ft 364 kts 14°
2026-05-07 09:05 -34.88737 149.33739 13168 ft 365 kts 14°
2026-05-07 09:05 -34.86127 149.34673 13154 ft 365 kts 14°
2026-05-07 09:05 -34.83825 149.35495 13155 ft 366 kts 14°
2026-05-07 09:06 -34.81341 149.36382 13159 ft 365 kts 14°
2026-05-07 09:06 -34.78640 149.37345 13209 ft 390 kts 14°
2026-05-07 09:06 -34.75900 149.38519 13287 ft 429 kts 28°
2026-05-07 09:06 -34.73830 149.40497 15225 ft 375 kts 45°
2026-05-07 09:07 -34.71973 149.43359 14453 ft 412 kts 56°
2026-05-07 09:07 -34.70461 149.46944 11720 ft 430 kts 63°
2026-05-07 09:07 -34.69197 149.49985 14285 ft 335 kts 63°
2026-05-07 09:07 -34.67911 149.52970 14240 ft 340 kts 62°
2026-05-07 09:08 -34.66753 149.55627 13846 ft 336 kts 62°
2026-05-07 09:08 -34.65657 149.58137 13399 ft 334 kts 62°
2026-05-07 09:08 -34.64513 149.60753 13183 ft 335 kts 62°
2026-05-07 09:08 -34.63379 149.63343 13150 ft 334 kts 62°
2026-05-07 09:09 -34.62133 149.66189 13167 ft 332 kts 61°
2026-05-07 09:09 -34.60883 149.69040 13152 ft 332 kts 61°
2026-05-07 09:09 -34.59649 149.71854 13149 ft 332 kts 61°
2026-05-07 09:09 -34.58425 149.74641 13156 ft 332 kts 61°
2026-05-07 09:10 -34.57206 149.77414 13154 ft 332 kts 61°
2026-05-07 09:10 -34.55982 149.80196 13153 ft 332 kts 61°
2026-05-07 09:10 -34.54860 149.82746 13154 ft 332 kts 61°
2026-05-07 09:10 -34.53706 149.85366 13153 ft 332 kts 61°
2026-05-07 09:11 -34.52489 149.88124 13152 ft 332 kts 61°
2026-05-07 09:11 -34.51328 149.90757 13151 ft 332 kts 61°
2026-05-07 09:11 -34.50308 149.93066 13149 ft 332 kts 61°
2026-05-07 09:11 -34.49287 149.95378 13147 ft 332 kts 61°
2026-05-07 09:12 -34.48196 149.97845 13144 ft 332 kts 61°
2026-05-07 09:12 -34.47173 150.00157 13142 ft 332 kts 61°
2026-05-07 09:12 -34.46082 150.02622 13139 ft 333 kts 61°
2026-05-07 09:12 -34.44957 150.05159 13136 ft 333 kts 61°
2026-05-07 09:13 -34.43860 150.07632 13134 ft 333 kts 61°
2026-05-07 09:13 -34.42751 150.10132 13132 ft 333 kts 61°
2026-05-07 09:13 -34.41716 150.12462 13131 ft 333 kts 61°
2026-05-07 09:13 -34.40502 150.15195 13129 ft 333 kts 61°
2026-05-07 09:14 -34.39327 150.17835 13129 ft 333 kts 61°
2026-05-07 09:14 -34.38117 150.20556 13129 ft 333 kts 61°
2026-05-07 09:14 -34.36898 150.23290 13129 ft 333 kts 61°
2026-05-07 09:14 -34.35696 150.25988 13129 ft 333 kts 61°
2026-05-07 09:15 -34.34498 150.28673 13127 ft 333 kts 61°
2026-05-07 09:15 -34.33396 150.31142 13125 ft 333 kts 61°
2026-05-07 09:15 -34.32197 150.33825 13125 ft 333 kts 61°
2026-05-07 09:15 -34.31008 150.36484 13124 ft 333 kts 61°
2026-05-07 09:16 -34.29904 150.38950 13124 ft 333 kts 61°
2026-05-07 09:16 -34.28768 150.41487 13124 ft 333 kts 61°
2026-05-07 09:16 -34.27579 150.44133 13125 ft 333 kts 61°
2026-05-07 09:16 -34.26335 150.46910 13126 ft 333 kts 61°
2026-05-07 09:17 -34.25107 150.49657 13127 ft 332 kts 61°
2026-05-07 09:17 -34.23963 150.52214 12804 ft 327 kts 61°
2026-05-07 09:17 -34.22864 150.54670 12299 ft 327 kts 62°
2026-05-07 09:17 -34.21688 150.57297 11855 ft 324 kts 62°
2026-05-07 09:18 -34.20471 150.60016 11374 ft 322 kts 62°
2026-05-07 09:18 -34.19354 150.62508 10928 ft 320 kts 61°
2026-05-07 09:18 -34.18339 150.64771 10524 ft 318 kts 61°
2026-05-07 09:18 -34.17325 150.67028 10115 ft 316 kts 60°
2026-05-07 09:19 -34.16252 150.69413 9680 ft 315 kts 60°
2026-05-07 09:19 -34.15176 150.71802 9244 ft 313 kts 60°
2026-05-07 09:19 -34.14055 150.74291 9001 ft 312 kts 60°
2026-05-07 09:19 -34.13000 150.76632 8914 ft 306 kts 60°
2026-05-07 09:20 -34.11954 150.78952 8378 ft 309 kts 60°
2026-05-07 09:20 -34.10816 150.81475 7897 ft 308 kts 60°
2026-05-07 09:20 -34.09728 150.83889 7466 ft 306 kts 60°
2026-05-07 09:20 -34.08595 150.86407 7016 ft 304 kts 60°
2026-05-07 09:21 -34.07575 150.88674 6610 ft 303 kts 60°
2026-05-07 09:21 -34.06456 150.91157 6511 ft 297 kts 60°
2026-05-07 09:21 -34.05481 150.93321 6435 ft 283 kts 60°
2026-05-07 09:21 -34.04485 150.95530 6163 ft 278 kts 60°
2026-05-07 09:22 -34.03475 150.97767 5762 ft 277 kts 60°
2026-05-07 09:22 -34.02534 150.99851 5485 ft 269 kts 60°
2026-05-07 09:22 -34.01707 151.01712 5330 ft 251 kts 60°
2026-05-07 09:22 -34.00829 151.03698 4815 ft 248 kts 60°
2026-05-07 09:23 -33.99937 151.05648 4187 ft 250 kts 54°
2026-05-07 09:23 -33.98872 151.07356 3384 ft 257 kts 38°
2026-05-07 09:23 -33.97327 151.08401 2618 ft 248 kts
2026-05-07 09:23 -33.95798 151.08863 2701 ft 183 kts 342°
2026-05-07 09:24 -33.95040 151.08142 2787 ft 141 kts 289°
2026-05-07 09:24 -33.95224 151.06984 2478 ft 173 kts 201°
2026-05-07 09:24 -33.96069 151.07934 2019 ft 203 kts 84°
2026-05-07 09:24 -33.95855 151.09580 1452 ft 196 kts 78°
2026-05-07 09:25 -33.95579 151.11136 1021 ft 185 kts 76°
2026-05-07 09:25 -33.95269 151.12586 654 ft 172 kts 73°
2026-05-07 09:25 -33.94955 151.13936 381 ft 164 kts 72°
2026-05-07 09:25 -33.94625 151.15307 230 ft 175 kts 70°
2026-05-07 09:26 -33.94287 151.16747 33 ft 164 kts 71°
2026-05-07 09:26 -33.94001 151.17942 13 ft 72 kts 77°
2026-05-07 09:26 -33.93966 151.18101 16 ft 1 kts 71°
2026-05-07 09:26 -33.93953 151.18147 17 ft 12 kts 72°
2026-05-07 09:27 -33.93894 151.18282 22 ft 13 kts
2026-05-07 09:27 -33.93824 151.18259 22 ft 7 kts 345°
2026-05-07 09:27 -33.93771 151.18234 22 ft 6 kts 330°
2026-05-07 09:28 -33.93758 151.18130 19 ft 16 kts 257°
2026-05-07 09:28 -33.93786 151.18011 16 ft 13 kts 254°
2026-05-07 09:28 -33.93810 151.17910 11 ft 11 kts 254°
2026-05-07 09:28 -33.93834 151.17808 8 ft 12 kts 255°
2026-05-07 09:29 -33.93857 151.17710 8 ft 10 kts 254°
2026-05-07 09:29 -33.93877 151.17625 8 ft 9 kts 253°
2026-05-07 09:29 -33.93894 151.17550 8 ft 8 kts 255°
2026-05-07 09:29 -33.93907 151.17497 10 ft 4 kts 253°
2026-05-07 09:30 -33.93916 151.17461 10 ft 4 kts 253°
2026-05-07 09:30 -33.93931 151.17399 12 ft 10 kts 254°
2026-05-07 09:30 -33.93956 151.17292 15 ft 11 kts 257°
2026-05-07 09:30 -33.93955 151.17229 18 ft 4 kts 300°
2026-05-07 09:31 -33.93912 151.17205 18 ft 10 kts 347°
2026-05-07 09:31 -33.93827 151.17183 17 ft 10 kts 348°
2026-05-07 09:31 -33.93777 151.17170 18 ft 4 kts 348°
2026-05-07 09:31 -33.93737 151.17160 18 ft 12 kts 348°
2026-05-07 09:32 -33.93590 151.17122 21 ft 23 kts 347°
2026-05-07 09:32 -33.93510 151.17036 24 ft 11 kts 264°
2026-05-07 09:32 -33.93516 151.16969 25 ft 4 kts 270°
2026-05-07 09:32 -33.93493 151.16920 26 ft 12 kts 338°
2026-05-07 09:33 -33.93353 151.16887 27 ft 17 kts
2026-05-07 09:33 -33.93275 151.16852 26 ft 10 kts 293°
2026-05-07 09:33 -33.93254 151.16801 25 ft 0 kts 299°